Miscellaneous Local Product
Issued by NWS Hastings, NE

Home | Current Version | Previous Version | Graphics & Text | Print | Product List | Glossary On
Versions: 1 2 3 4 5 6 7 8 9 10 11 12 13 14 15 16 17 18 19 20 21 22 23 24 25 26 27 28 29 30 31 32 33 34 35 36 37 38 39 40 41 42 43 44 45 46 47 48 49 50
000
AXUS43 KGID 301202
MISGRI

GID CWA HOURLY WEATHER ROUNDUP
NATIONAL WEATHER SERVICE HASTINGS NE
700 AM CDT TUE JUN 30 2015

NOTE: "FAIR" INDICATES FEW OR NO CLOUDS BELOW 12,000 FEET WITH NO
SIGNIFICANT WEATHER AND/OR OBSTRUCTIONS TO VISIBILITY.

...SOUTH CENTRAL NEBRASKA...

CITY           SKY/WX    TMP DP  RH WIND       PRES   REMARKS
GRAND ISLAND   CLEAR     65  60  84 SW3       29.98R HAZE
HASTINGS       CLEAR     67  59  75 CALM      29.98R
KEARNEY        CLEAR     64  59  82 S3        29.99S
ORD            CLEAR     57  55  93 CALM      29.95F FOG
YORK           CLEAR     66  63  88 SW5       29.97R
AURORA         CLEAR     63  61  94 SW6       29.97R FOG
LEXINGTON      CLEAR     62  59  91 CALM      29.99S
HOLDREGE       CLEAR     65  58  76 CALM      30.00R
HEBRON         CLEAR     62  59  90 CALM      29.97S FOG

...NEBRASKA PANHANDLE...

CITY           SKY/WX    TMP DP  RH WIND       PRES   REMARKS
CHADRON        PTCLDY    58  55  90 CALM      30.01R
ALLIANCE       PTCLDY    54  52  93 CALM      30.04F
SCOTTSBLUFF    PTCLDY    60  55  83 NW7       30.07R
SIDNEY         PTCLDY    58  56  93 W7        30.10S

...WESTERN AND NORTH CENTRAL NEBRASKA...

CITY           SKY/WX    TMP DP  RH WIND       PRES   REMARKS
VALENTINE      MOCLDY    64  60  87 SW7       29.96S
AINSWORTH      PTCLDY    68  57  68 SW8       29.97S
ONEILL         PTCLDY    66  62  87 NE8       29.98S
BROKEN BOW     CLEAR     63  59  87 CALM      30.00R
IMPERIAL       PTCLDY    62  57  83 W3        30.04R
NORTH PLATTE   MOCLDY    62  58  86 CALM      30.01F
MCCOOK         CLEAR     62  57  83 SW3       30.00S

...EASTERN NEBRASKA...

CITY           SKY/WX    TMP DP  RH WIND       PRES   REMARKS
NORFOLK        MOCLDY    69  63  81 CALM      29.97R HAZE
SO SIOUX CITY  CLOUDY    68  62  81 N6        29.96R HAZE
TEKAMAH        PTSUNNY   67  62  84 N5        29.95R HAZE
COLUMBUS       PTCLDY    64  57  77 CALM      29.96S
ALBION         PTCLDY    60  56  89 CALM      29.97R FOG
OMAHA EPPLEY   CLOUDY    70  64  81 CALM      29.93R
OFFUTT AFB     PTSUNNY   63  63  99 CALM      29.93R
MILLARD        MOSUNNY   65  64  94 CALM      29.93R FOG
LINCOLN        CLEAR     68  62  81 CALM      29.95R HAZE
NEBRASKA CITY  SUNNY     66  59  77 W7        29.94R
BEATRICE       CLEAR     66  62  88 CALM      29.95S FOG
FALLS CITY     PTSUNNY   65  62  90 W5        29.92S

...NORTHERN KANSAS...

CITY           SKY/WX    TMP DP  RH WIND       PRES   REMARKS
GOODLAND       CLEAR     64  54  69 W6        30.07S
HILL CITY      CLEAR     65  55  70 W5        30.01R
NORTON         SUNNY     64  54  68 SW9       30.00R
PHILLIPSBURG   CLEAR     66  59  77 CALM      29.99S
SMITH CENTER   CLEAR     66  57  72 CALM      29.99R
HAYS           CLEAR     66  52  59 NW5       30.00R
RUSSELL        CLEAR     65  58  78 S8        29.99S
CONCORDIA      CLEAR     65  60  84 CALM      29.97S
SALINA         CLEAR     66  59  78 CALM      29.97S
TOPEKA         PTCLDY    67  65  93 W3        29.95R



USA.gov is the U.S. government's official web portal to all federal, state and local government web resources and services.